When you browse on this site, cookies collect data to enhance your experience and personalize the content and advertising you see.
Visit our Privacy Policy to learn more. By continuing to use the site, you agree to this use of cookies and data.
  • In Hungary
  • List of Countries
  • For 7 days
  • Water Temperature
  • Satellite Maps
  • Weather Map
  • News
  • Weather Widgets
  • user-avatar
    Login

    Hourly Weather Pryozerne

    Today, 23 July, Tuesday

    Time Temperature Precipitation Wind Pressure Humidity
    00:00 +23°C° 0 mm 1 mps 757 mmHg 59%
    01:00 +23°C° 0 mm 1 mps 756 mmHg 61%
    02:00 +23°C° 0 mm 1 mps 756 mmHg 66%
    03:00 +23°C° 0 mm 1 mps 756 mmHg 67%
    04:00 +23°C° 0 mm 1 mps 756 mmHg 67%
    05:00 +24°C° 0 mm 1 mps 756 mmHg 67%
    06:00 +26°C° 0 mm 2 mps 755 mmHg 58%
    07:00 +28°C° 0 mm 2 mps 755 mmHg 49%
    08:00 +30°C° 0 mm 2 mps 755 mmHg 40%
    09:00 +31°C° 0 mm 2 mps 755 mmHg 37%
    10:00 +33°C° 0 mm 3 mps 755 mmHg 35%
    11:00 +34°C° 0 mm 3 mps 755 mmHg 32%
    12:00 +34°C° 0 mm 3 mps 754 mmHg 31%
    13:00 +34°C° 0 mm 3 mps 754 mmHg 31%
    14:00 +34°C° 0 mm 3 mps 754 mmHg 31%
    15:00 +34°C° 0 mm 3 mps 754 mmHg 31%
    16:00 +33°C° 0 mm 3 mps 754 mmHg 32%
    17:00 +33°C° 0 mm 3 mps 754 mmHg 33%
    18:00 +30°C° 0 mm 3 mps 754 mmHg 40%
    19:00 +28°C° 0 mm 2 mps 753 mmHg 47%
    20:00 +26°C° 0 mm 2 mps 753 mmHg 54%
    21:00 +25°C° 0 mm 2 mps 753 mmHg 58%
    22:00 +25°C° 0 mm 1 mps 753 mmHg 63%
    23:00 +25°C° 0 mm 1 mps 753 mmHg 68%

    Tomorrow, 24 July, Wednesday

    Time Temperature Precipitation Wind Pressure Humidity
    00:00 +24°C° 0 mm 1 mps 753 mmHg 69%
    01:00 +24°C° 0 mm 1 mps 753 mmHg 69%
    02:00 +24°C° 0 mm 1 mps 753 mmHg 70%
    03:00 +24°C° 0 mm 2 mps 753 mmHg 71%
    04:00 +24°C° 0 mm 2 mps 752 mmHg 72%
    05:00 +24°C° 0 mm 3 mps 752 mmHg 73%
    06:00 +26°C° 0.1 mm 2 mps 752 mmHg 65%
    07:00 +27°C° 0.1 mm 2 mps 752 mmHg 57%
    08:00 +29°C° 0.1 mm 2 mps 752 mmHg 49%
    09:00 +30°C° 0 mm 3 mps 752 mmHg 48%
    10:00 +30°C° 0 mm 3 mps 752 mmHg 46%
    11:00 +30°C° 0 mm 3 mps 752 mmHg 45%
    12:00 +30°C° 0.3 mm 3 mps 752 mmHg 48%
    13:00 +30°C° 0.3 mm 4 mps 752 mmHg 50%
    14:00 +29°C° 0.3 mm 4 mps 752 mmHg 53%
    15:00 +29°C° 0 mm 4 mps 752 mmHg 51%
    16:00 +29°C° 0 mm 4 mps 752 mmHg 50%
    17:00 +29°C° 0 mm 3 mps 752 mmHg 48%
    18:00 +27°C° 0 mm 3 mps 752 mmHg 54%
    19:00 +26°C° 0 mm 3 mps 753 mmHg 59%
    20:00 +25°C° 0 mm 3 mps 753 mmHg 65%
    21:00 +25°C° 0 mm 3 mps 753 mmHg 64%
    22:00 +25°C° 0 mm 3 mps 753 mmHg 63%
    23:00 +25°C° 0 mm 3 mps 753 mmHg 62%

    Day after tomorrow, 25 July, Thursday

    Time Temperature Precipitation Wind Pressure Humidity
    00:00 +25°C° 0 mm 3 mps 753 mmHg 64%
    01:00 +25°C° 0 mm 3 mps 753 mmHg 65%
    02:00 +23°C° 0 mm 4 mps 753 mmHg 67%
    03:00 +24°C° 0 mm 3 mps 753 mmHg 67%
    04:00 +24°C° 0 mm 3 mps 753 mmHg 67%
    05:00 +24°C° 0 mm 2 mps 753 mmHg 67%
    06:00 +25°C° 0.1 mm 3 mps 754 mmHg 60%
    07:00 +27°C° 0.1 mm 4 mps 754 mmHg 53%
    08:00 +28°C° 0.1 mm 4 mps 754 mmHg 46%
    09:00 +29°C° 0 mm 4 mps 754 mmHg 46%
    10:00 +29°C° 0 mm 4 mps 754 mmHg 46%
    11:00 +30°C° 0 mm 5 mps 754 mmHg 45%
    12:00 +30°C° 0.1 mm 5 mps 754 mmHg 44%
    13:00 +30°C° 0.1 mm 5 mps 754 mmHg 43%
    14:00 +30°C° 0.1 mm 5 mps 754 mmHg 42%
    15:00 +30°C° 0 mm 5 mps 754 mmHg 41%
    16:00 +30°C° 0 mm 4 mps 754 mmHg 39%
    17:00 +29°C° 0 mm 4 mps 754 mmHg 37%
    18:00 +28°C° 0 mm 4 mps 754 mmHg 42%
    19:00 +26°C° 0 mm 4 mps 755 mmHg 48%
    20:00 +25°C° 0 mm 3 mps 755 mmHg 53%
    21:00 +25°C° 0 mm 4 mps 755 mmHg 57%
    22:00 +23°C° 0 mm 4 mps 755 mmHg 62%
    23:00 +23°C° 0 mm 4 mps 755 mmHg 67%

    26 July, Friday

    Time Temperature Precipitation Wind Pressure Humidity
    00:00 +22°C° 0 mm 4 mps 755 mmHg 67%
    01:00 +22°C° 0 mm 4 mps 755 mmHg 68%
    02:00 +21°C° 0 mm 4 mps 755 mmHg 68%
    03:00 +21°C° 0 mm 4 mps 755 mmHg 71%
    04:00 +21°C° 0 mm 4 mps 755 mmHg 73%
    05:00 +21°C° 0 mm 3 mps 755 mmHg 75%
    06:00 +23°C° 0 mm 4 mps 755 mmHg 66%
    07:00 +26°C° 0 mm 4 mps 755 mmHg 58%
    08:00 +28°C° 0 mm 4 mps 755 mmHg 49%
    09:00 +28°C° 0 mm 4 mps 755 mmHg 46%
    10:00 +29°C° 0 mm 5 mps 755 mmHg 44%
    11:00 +30°C° 0 mm 5 mps 755 mmHg 41%
    12:00 +30°C° 0 mm 4 mps 755 mmHg 39%
    13:00 +30°C° 0 mm 4 mps 755 mmHg 37%
    14:00 +32°C° 0 mm 4 mps 755 mmHg 35%
    15:00 +30°C° 0 mm 3 mps 754 mmHg 37%
    16:00 +30°C° 0 mm 3 mps 754 mmHg 39%
    17:00 +29°C° 0 mm 2 mps 754 mmHg 40%
    18:00 +28°C° 0 mm 3 mps 754 mmHg 48%
    19:00 +26°C° 0 mm 4 mps 754 mmHg 56%
    20:00 +25°C° 0 mm 5 mps 754 mmHg 64%
    21:00 +23°C° 0 mm 5 mps 754 mmHg 66%
    22:00 +23°C° 0 mm 5 mps 754 mmHg 69%
    23:00 +23°C° 0 mm 5 mps 754 mmHg 72%

    27 July, Saturday

    Time Temperature Precipitation Wind Pressure Humidity
    00:00 +23°C° 0 mm 5 mps 754 mmHg 73%
    01:00 +22°C° 0 mm 5 mps 753 mmHg 74%
    02:00 +22°C° 0 mm 4 mps 753 mmHg 76%
    03:00 +22°C° 0 mm 4 mps 753 mmHg 76%
    04:00 +22°C° 0 mm 3 mps 753 mmHg 76%
    05:00 +23°C° 0 mm 2 mps 753 mmHg 76%
    06:00 +25°C° 0 mm 2 mps 753 mmHg 67%
    07:00 +26°C° 0 mm 2 mps 753 mmHg 57%
    08:00 +28°C° 0 mm 2 mps 753 mmHg 48%
    09:00 +29°C° 0 mm 3 mps 753 mmHg 44%
    10:00 +30°C° 0 mm 3 mps 753 mmHg 41%
    11:00 +32°C° 0 mm 4 mps 753 mmHg 37%
    12:00 +33°C° 0 mm 4 mps 752 mmHg 37%
    13:00 +33°C° 0 mm 4 mps 752 mmHg 37%
    14:00 +33°C° 0 mm 5 mps 752 mmHg 36%
    15:00 +32°C° 0 mm 4 mps 752 mmHg 38%
    16:00 +30°C° 0 mm 4 mps 751 mmHg 41%
    17:00 +29°C° 0 mm 3 mps 751 mmHg 43%
    18:00 +28°C° 0 mm 3 mps 751 mmHg 50%
    19:00 +26°C° 0 mm 3 mps 751 mmHg 58%
    20:00 +24°C° 0 mm 3 mps 751 mmHg 66%
    21:00 +24°C° 0 mm 3 mps 751 mmHg 65%
    22:00 +24°C° 0 mm 2 mps 751 mmHg 64%
    23:00 +24°C° 0 mm 2 mps 750 mmHg 63%

    28 July, Sunday

    Time Temperature Precipitation Wind Pressure Humidity
    00:00 +24°C° 0 mm 2 mps 750 mmHg 63%
    01:00 +23°C° 0 mm 2 mps 750 mmHg 63%
    02:00 +23°C° 0 mm 2 mps 750 mmHg 63%
    03:00 +23°C° 0 mm 2 mps 750 mmHg 68%
    04:00 +23°C° 0 mm 2 mps 750 mmHg 74%
    05:00 +23°C° 0 mm 1 mps 750 mmHg 79%
    06:00 +25°C° 0 mm 1 mps 750 mmHg 70%
    07:00 +27°C° 0 mm 1 mps 750 mmHg 61%
    08:00 +29°C° 0 mm 1 mps 750 mmHg 52%
    09:00 +30°C° 0 mm 1 mps 750 mmHg 47%
    10:00 +31°C° 0 mm 2 mps 749 mmHg 43%
    11:00 +32°C° 0 mm 2 mps 749 mmHg 39%
    12:00 +32°C° 0 mm 2 mps 749 mmHg 39%
    13:00 +32°C° 0 mm 2 mps 749 mmHg 40%
    14:00 +32°C° 0 mm 2 mps 748 mmHg 40%
    15:00 +32°C° 0 mm 2 mps 748 mmHg 41%
    16:00 +32°C° 0 mm 2 mps 748 mmHg 41%
    17:00 +31°C° 0 mm 2 mps 748 mmHg 42%
    18:00 +30°C° 0 mm 1 mps 748 mmHg 46%
    19:00 +28°C° 0 mm 1 mps 748 mmHg 50%
    20:00 +27°C° 0 mm 1 mps 748 mmHg 54%
    21:00 +26°C° 0 mm 1 mps 748 mmHg 55%
    22:00 +26°C° 0 mm 1 mps 748 mmHg 55%
    23:00 +26°C° 0 mm 1 mps 748 mmHg 56%
    Show more